Regional Weather Roundup
Issued by NWS

Home | Current Version | Previous Version | Graphics & Text | Print | Product List | Glossary On
Versions: 1 2 3 4 5 6 7 8 9 10 11 12 13 14 15 16 17 18 19 20 21 22 23 24 25 26 27 28 29 30 31 32 33 34 35 36 37 38 39 40 41 42 43 44 45 46 47 48 49 50
000
ASUS43 KDTX 231101
RWRMI
MICHIGAN HOURLY REGIONAL WEATHER ROUNDUP
NATIONAL WEATHER SERVICE DETROIT/PONTIAC MI
700 AM EDT MON OCT 23 2017

NOTE: "FAIR" INDICATES FEW OR NO CLOUDS BELOW 12,000 FEET WITH NO
SIGNIFICANT WEATHER AND/OR OBSTRUCTION TO VISIBILITY.

MIZ047>049-052>055-059>063-066>070-074>076-081>083-231200-
SOUTHEAST LOWER MICHIGAN

CITY           SKY/WX    TMP DP  RH WIND       PRES   REMARKS
ADRIAN         CLOUDY    61  50  67 S5        29.90F
ALMA           CLOUDY    56  55  95 NW5       29.90F
ANN ARBOR      CLOUDY    59  51  75 E3        29.91F
BAD AXE        CLOUDY    61  50  67 S6        29.91F
CARO           MOCLDY    62  49  60 SE6       29.90F
DETROIT CITY   MOCLDY    63  53  70 S7        29.93F
DETROIT        CLOUDY    63  53  70 S6        29.93F
FLINT          CLOUDY    62  49  62 S5        29.90F
GROSSE ILE     CLOUDY    62  56  80 S7        29.93S
HILLSDALE      CLOUDY    61  48  63 SE3       29.89F
HOWELL         CLOUDY    62  49  62 S8        29.90F

CITY           SKY/WX    TMP DP  RH WIND       PRES   REMARKS
JACKSON        CLOUDY    63  49  60 SE6       29.90F
LAMBERTVILLE   CLOUDY    65  50  59 S7        29.91F
LANSING        MOCLDY    63  52  67 SE6       29.88F
LAPEER         MOCLDY    63  49  62 S6        29.92F
MASON          CLOUDY    64  50  59 S7        29.89S
MONROE         MOCLDY    63  51  64 SE7       29.91F
MT. CLEMENS    CLOUDY    60  60 100 SE5       29.92F
PONTIAC        MOCLDY    61  52  72 S9        29.91F
PORT HOPE        N/A     62  50  64 S5        29.90F
PORT HURON     CLOUDY    63  54  72 SE3       29.94F
TRI CITIES     CLOUDY    59  58  96 N8        29.89F
MIDLAND        RAIN      57  56  96 CALM      29.89S
TROY           CLOUDY    63  52  67 CALM      29.95F
SAGINAW HB     CLOUDY    61  55  82 CALM      29.89F
$$
MIZ043>046-050>051-056>058-064>065-071>073-077>080-231200-
SOUTHWEST LOWER MICHIGAN

CITY           SKY/WX    TMP DP  RH WIND       PRES   REMARKS
BATTLE CREEK   LGT RAIN  61  56  83 S5        29.88F
BENTON HARBOR  LGT RAIN  56  54  93 VRB3      29.87F
BIG RAPIDS     LGT RAIN  51  49  94 N6        29.92S
COLDWATER      CLOUDY    64  49  59 SE6       29.88S
FREMONT        LGT RAIN  51  51 100 N7        29.92S
HOLLAND        LGT RAIN  53  51  93 VRB6      29.90F
GRAND RAPIDS   LGT RAIN  55  55 100 N8        29.87F
IONIA          RAIN      57  56  99 E5        29.88F
KALAMAZOO      LGT RAIN  59  56  89 N5        29.88S FOG
LUDINGTON      RAIN      50  49  97 CALM      29.95S
MARSHALL       CLOUDY    63  51  66 S5        29.88S
MOUNT PLEASANT RAIN      56  55  94 N5        29.89F
MUSKEGON       RAIN      53  51  93 N10       29.91F
SOUTH HAVEN    LGT RAIN  55  54  95 N6        29.89S
$$
MIZ016>042-231200-
NORTHERN LOWER MICHIGAN

CITY           SKY/WX    TMP DP  RH WIND       PRES   REMARKS
ALPENA         RAIN      51  51 100 N3        29.95F
BEAVER ISLAND  CLOUDY    49  48  99 CALM      29.95R FOG
BELLAIRE       RAIN      50  49  95 CALM      29.95F
CADILLAC       HVY RAIN  52  49  89 CALM      29.95R
CHARLEVOIX     RAIN      51  51 100 CALM      29.98R
FRANKFORT      RAIN      52  52 100 CALM      29.94F
GAYLORD        LGT RAIN  47  46  97 CALM      29.96R FOG
GRAYLING       HVY RAIN  49  47  93 N7        29.94S
HARBOR SPRINGS RAIN      49  48  95 NE3       29.95S
HOUGHTON LAKE  RAIN      51  49  92 N6        29.93F FOG
MANISTEE       RAIN      51  50  96 CALM      29.95F FOG
OSCODA         LGT RAIN  55  54  95 N5        29.92F
PELLSTON       LGT RAIN  50  49  96 S3        29.97R FOG
ROGERS CITY    RAIN      51  49  96 NW5       29.96R
TRAVERSE CITY  RAIN      52  50  93 W6        29.94S FOG
$$
MIZ007>008-015-231200-
EASTERN UPPER MICHIGAN

CITY           SKY/WX    TMP DP  RH WIND       PRES   REMARKS
KINROSS        LGT RAIN  48  48 100 CALM      29.94F
MACKINAC ISLAN LGT RAIN  51  51 100 E3        29.94F
NEWBERRY       CLOUDY    43  42  97 S5        29.92F
S. S. MARIE    CLOUDY    50  49  96 CALM      29.93F
MUNISING         N/A     42  42 100 S5        29.91F
$$
MIZ004>006-011>014-085-231200-
CENTRAL UPPER MICHIGAN

CITY           SKY/WX    TMP DP  RH WIND       PRES   REMARKS
MANISTIQUE     HAZE      38  33  81 CALM      29.93S VSB 1
ESCANABA       CLOUDY    43  43 100 SW3       29.94S FOG
MENOMINEE      FOG       43  42  97 CALM      29.94F VSB 1/4
SAWYER-GWINN   CLOUDY    39  39 100 S7        29.91F WCI  34
$$
MIZ001>003-009>011-084-231200-
WESTERN UPPER MICHIGAN

CITY           SKY/WX    TMP DP  RH WIND       PRES   REMARKS
IRON MOUNTAIN  FOG       34  32  92 CALM      29.90F VSB 1/4
HOUGHTON       CLOUDY    43  39  86 S5        29.83F
COPPER HARBOR    N/A     48  39  71 SW9G17    29.84F
IRONWOOD       CLOUDY    48  39  71 S14       29.78F
$$

ABBREVIATIONS USED IN REMARKS
   TC - TEMPERATURE IN CELSIUS
  WCI - WIND CHILL INDEX
   HX - HEAT INDEX
  VSB - VISIBILITY





USA.gov is the U.S. government's official web portal to all federal, state and local government web resources and services.